Weather History for Presque Isle, ME

Change the Weather History Date:

Thursday, February 21, 2013

  Actual Average Record
Temperature  
Mean Temperature 30 °F -  
Max Temperature 33 °F 27 °F 49 °F (1953)
Min Temperature 26 °F 8 °F -28 °F (1993)
Degree Days  
Heating Degree Days 36    
Moisture  
Dew Point 23 °F    
Average Humidity 77    
Maximum Humidity 93    
Minimum Humidity 69    
Precipitation  
Precipitation 0.00 in - - ()
Sea Level Pressure  
Sea Level Pressure 29.68 in    
Wind  
Wind Speed 12 mph (NNW)    
Max Wind Speed 25 mph    
Max Gust Speed 36 mph    
Visibility 8 miles    
Events      
Averages and records for this station are not official NWS values.
T = Trace of Precipitation, MM = Missing Value Source: NWS Daily Summary

Daily Weather History Graph

Daily Weather History Graph

Search for Another Location

Airport:

Trip Planner

Search our weather history database for the weather conditions in past years. The results will help you decide how hot, cold, wet, or windy it might be!

Date:

Astronomy

Feb. 21, 2013 Rise Set
Actual Time 6:25 AM EST 5:06 PM EST
Civil Twilight 5:54 AM EST 5:37 PM EST
Nautical Twilight 5:19 AM EST 6:12 PM EST
Astronomical Twilight 4:44 AM EST 6:47 PM EST
Moon 1:08 PM EST 3:37 AM EST
Length of Visible Light 11h 42m
Length of Day
10h 40m
Waxing Gibbous, 83% of the Moon is Illuminated
Feb 21
Waxing Gibbous
Feb 25
Full
Mar 4
Last Quarter
Mar 11
New
Mar 19
First Quarter

Hourly Weather History & Observations

Time (EST) Temp. Windchill Dew Point Humidity Pressure Visibility Wind Dir Wind Speed Gust Speed Precip Events Conditions
12:15 AM 26.6 °F 19.1 °F 21.2 °F 80% 29.40 in 10.0 mi WSW 6.9 mph - N/A   Overcast
12:35 AM 26.6 °F 18.2 °F 21.2 °F 80% 29.40 in 10.0 mi WSW 8.1 mph - N/A   Overcast
12:55 AM 26.6 °F 21.2 °F 21.2 °F 80% 29.40 in 10.0 mi WSW 4.6 mph - N/A   Overcast
1:15 AM 26.6 °F 19.1 °F 21.2 °F 80% 29.41 in 10.0 mi West 6.9 mph - N/A   Overcast
1:35 AM 26.6 °F 19.1 °F 21.2 °F 80% 29.41 in 10.0 mi West 6.9 mph - N/A   Overcast
1:55 AM 26.6 °F 18.2 °F 21.2 °F 80% 29.40 in 10.0 mi West 8.1 mph - N/A   Overcast
2:15 AM 26.6 °F 18.2 °F 21.2 °F 80% 29.41 in 10.0 mi West 8.1 mph - N/A   Overcast
2:35 AM 26.6 °F 17.5 °F 21.2 °F 80% 29.42 in 10.0 mi West 9.2 mph - N/A   Overcast
2:55 AM 26.6 °F 18.2 °F 21.2 °F 80% 29.42 in 10.0 mi West 8.1 mph - N/A   Overcast
3:15 AM 26.6 °F 17.5 °F 21.2 °F 80% 29.42 in 9.0 mi West 9.2 mph - N/A   Overcast
3:35 AM 26.6 °F 17.5 °F 21.2 °F 80% 29.42 in 7.0 mi West 9.2 mph - N/A   Overcast
3:55 AM 26.6 °F 17.5 °F 21.2 °F 80% 29.43 in 10.0 mi West 9.2 mph - N/A   Overcast
4:15 AM 26.6 °F 18.2 °F 23.0 °F 86% 29.44 in 9.0 mi West 8.1 mph - N/A   Overcast
4:35 AM 26.6 °F 18.2 °F 23.0 °F 86% 29.44 in 5.0 mi West 8.1 mph - N/A   Overcast
4:55 AM 26.6 °F 18.2 °F 23.0 °F 86% 29.44 in 8.0 mi West 8.1 mph - N/A   Overcast
5:15 AM 26.6 °F 19.1 °F 23.0 °F 86% 29.45 in 6.0 mi West 6.9 mph - N/A   Overcast
5:35 AM 26.6 °F 20.0 °F 23.0 °F 86% 29.45 in 4.0 mi WNW 5.8 mph - N/A   Overcast
5:55 AM 26.6 °F 18.2 °F 24.8 °F 93% 29.46 in 8.0 mi West 8.1 mph - N/A   Overcast
6:15 AM 26.6 °F 19.1 °F 24.8 °F 93% 29.47 in 8.0 mi WNW 6.9 mph - N/A   Overcast
6:35 AM 26.6 °F 20.0 °F 24.8 °F 93% 29.47 in 2.5 mi WNW 5.8 mph - N/A   Overcast
6:55 AM 28.4 °F 22.2 °F 24.8 °F 86% 29.48 in 5.0 mi NW 5.8 mph - N/A   Overcast
7:15 AM 28.4 °F 20.4 °F 24.8 °F 86% 29.49 in 5.0 mi NW 8.1 mph - N/A   Overcast
7:35 AM 28.4 °F 19.7 °F 24.8 °F 86% 29.50 in 3.0 mi NNW 9.2 mph - N/A   Overcast
7:55 AM 30.2 °F 21.3 °F 26.6 °F 86% 29.51 in 7.0 mi North 10.4 mph - N/A   Overcast
8:15 AM 30.2 °F 20.2 °F 26.6 °F 86% 29.52 in 1.2 mi North 12.7 mph - N/A   Overcast
8:35 AM 30.2 °F 19.8 °F 26.6 °F 86% 29.53 in 2.5 mi North 13.8 mph - N/A   Mostly Cloudy
8:55 AM 32.0 °F 21.6 °F 26.6 °F 80% 29.54 in 5.0 mi North 15.0 mph 19.6 mph N/A   Overcast
9:15 AM 32.0 °F 23.0 °F 26.6 °F 80% 29.55 in 10.0 mi North 11.5 mph 19.6 mph N/A   Overcast
9:35 AM 33.8 °F 23.5 °F 24.8 °F 70% 29.56 in 10.0 mi NNE 16.1 mph 25.3 mph N/A   Overcast
9:55 AM 32.0 °F 21.6 °F 26.6 °F 80% 29.57 in 9.0 mi North 15.0 mph - N/A   Overcast
10:15 AM 32.0 °F 22.1 °F 26.6 °F 80% 29.58 in 3.0 mi North 13.8 mph - N/A   Overcast
10:35 AM 33.8 °F 23.5 °F 26.6 °F 75% 29.59 in 10.0 mi North 16.1 mph 23.0 mph N/A   Overcast
10:55 AM 33.8 °F 23.2 °F 26.6 °F 75% 29.60 in 10.0 mi North 17.3 mph 21.9 mph N/A   Overcast
11:15 AM 33.8 °F 23.9 °F 26.6 °F 75% 29.61 in 9.0 mi North 15.0 mph - N/A   Overcast
11:35 AM 33.8 °F 23.5 °F 26.6 °F 75% 29.62 in 4.0 mi NNE 16.1 mph 23.0 mph N/A   Mostly Cloudy
11:55 AM 33.8 °F 22.5 °F 26.6 °F 75% 29.62 in 2.5 mi NNE 19.6 mph 24.2 mph N/A   Overcast
12:15 PM 33.8 °F 22.8 °F 26.6 °F 75% 29.63 in 5.0 mi NNE 18.4 mph 23.0 mph N/A   Overcast
12:35 PM 33.8 °F 23.5 °F 26.6 °F 75% 29.64 in 4.0 mi NNE 16.1 mph 23.0 mph N/A   Overcast
12:55 PM 33.8 °F 24.8 °F 26.6 °F 75% 29.66 in 3.0 mi NNE 12.7 mph 23.0 mph N/A   Overcast
1:15 PM 33.8 °F 23.5 °F 26.6 °F 75% 29.67 in 4.0 mi NNE 16.1 mph 23.0 mph N/A   Overcast
1:35 PM 33.8 °F 23.2 °F 24.8 °F 70% 29.68 in 10.0 mi North 17.3 mph - N/A   Overcast
1:55 PM 33.8 °F 23.9 °F 24.8 °F 70% 29.69 in 10.0 mi NNE 15.0 mph 28.8 mph N/A   Overcast
2:15 PM 33.8 °F 23.9 °F 24.8 °F 70% 29.70 in 10.0 mi NNE 15.0 mph 28.8 mph N/A   Overcast
2:35 PM 33.8 °F 21.6 °F 24.8 °F 70% 29.71 in 10.0 mi North 23.0 mph 27.6 mph N/A   Overcast
2:55 PM 33.8 °F 22.2 °F 24.8 °F 70% 29.72 in 10.0 mi NNE 20.7 mph 29.9 mph N/A   Mostly Cloudy
3:15 PM 33.8 °F 23.2 °F 26.6 °F 75% 29.74 in 10.0 mi North 17.3 mph 25.3 mph N/A   Overcast
3:35 PM 33.8 °F 21.9 °F 26.6 °F 75% 29.76 in 10.0 mi North 21.9 mph 25.3 mph N/A   Mostly Cloudy
3:55 PM 33.8 °F 22.2 °F 26.6 °F 75% 29.77 in 10.0 mi North 20.7 mph 29.9 mph N/A   Overcast
4:15 PM 33.8 °F 21.9 °F 24.8 °F 70% 29.79 in 10.0 mi North 21.9 mph 28.8 mph N/A   Mostly Cloudy
4:35 PM 32.0 °F 18.6 °F 24.8 °F 75% 29.81 in 8.0 mi North 25.3 mph 35.7 mph N/A   Overcast
4:55 PM 30.2 °F 16.5 °F 24.8 °F 80% 29.83 in 9.0 mi North 24.2 mph 32.2 mph N/A   Overcast
5:15 PM 30.2 °F 17.4 °F 24.8 °F 80% 29.85 in 7.0 mi North 20.7 mph 29.9 mph N/A   Mostly Cloudy
5:35 PM 30.2 °F 17.4 °F 24.8 °F 80% 29.86 in 10.0 mi North 20.7 mph 27.6 mph N/A   Overcast
5:55 PM 30.2 °F 17.1 °F 23.0 °F 75% 29.88 in 10.0 mi North 21.9 mph 28.8 mph N/A   Mostly Cloudy
6:15 PM 30.2 °F 16.8 °F 23.0 °F 75% 29.90 in 10.0 mi North 23.0 mph 32.2 mph N/A   Overcast
6:35 PM 30.2 °F 17.1 °F 21.2 °F 69% 29.91 in 10.0 mi North 21.9 mph - N/A   Overcast
6:55 PM 30.2 °F 16.8 °F 21.2 °F 69% 29.92 in 10.0 mi North 23.0 mph 31.1 mph N/A   Overcast
7:15 PM 30.2 °F 17.1 °F 21.2 °F 69% 29.94 in 10.0 mi North 21.9 mph 32.2 mph N/A   Overcast
7:35 PM 30.2 °F 17.1 °F 21.2 °F 69% 29.95 in 10.0 mi North 21.9 mph 28.8 mph N/A   Overcast
7:55 PM 30.2 °F 17.8 °F 21.2 °F 69% 29.97 in 10.0 mi North 19.6 mph 25.3 mph N/A   Overcast
8:15 PM 28.4 °F 15.4 °F 21.2 °F 74% 29.99 in 10.0 mi North 19.6 mph 23.0 mph N/A   Overcast
8:35 PM 28.4 °F 15.8 °F 21.2 °F 74% 30.00 in 10.0 mi North 18.4 mph 24.2 mph N/A   Overcast
8:55 PM 28.4 °F 16.2 °F 21.2 °F 74% 30.01 in 10.0 mi North 17.3 mph - N/A   Overcast
9:15 PM 28.4 °F 15.1 °F 21.2 °F 74% 30.02 in 10.0 mi North 20.7 mph 26.5 mph N/A   Overcast
9:35 PM 28.4 °F 15.8 °F 21.2 °F 74% 30.02 in 10.0 mi North 18.4 mph 26.5 mph N/A   Overcast
9:55 PM 28.4 °F 16.2 °F 19.4 °F 69% 30.03 in 10.0 mi North 17.3 mph - N/A   Overcast
10:15 PM 28.4 °F 16.6 °F 19.4 °F 69% 30.04 in 10.0 mi North 16.1 mph - N/A   Overcast
10:35 PM 28.4 °F 16.6 °F 19.4 °F 69% 30.05 in 10.0 mi North 16.1 mph - N/A   Overcast
10:55 PM 28.4 °F 18.0 °F 19.4 °F 69% 30.06 in 10.0 mi NNW 12.7 mph 18.4 mph N/A   Overcast
11:15 PM 28.4 °F 18.5 °F 19.4 °F 69% 30.07 in 10.0 mi NNW 11.5 mph - N/A   Overcast
11:35 PM 26.6 °F 14.3 °F 19.4 °F 74% 30.07 in 10.0 mi NNW 16.1 mph - N/A   Overcast
11:55 PM 26.6 °F 13.8 °F 19.4 °F 74% 30.09 in 10.0 mi NNW 17.3 mph - N/A   Overcast